Vertical_Velocity
-4 -7 -5 1 2 -0 -6 -1 -0 -4 -15 -11 -5 -1 -1 0 1 2 3 2 2 1 1 1 1 1 0 1 0 -0 -1 -2 -3 -3 -4 -4 -4 -4 -3 -3 -4 -4 -4 -4 -4 -5 -8 -10 -10 -8 -6 -3 -2 -0 1 3 4 4 4 3 1 1 2 6 6 4 -1 -2 -3 -4 -4 -2 -1 -0 -1 -1 -2 -3 -2 -3 -4 -4 -2 2 6 8
-3 -2 -1 2 3 -0 -8 -5 1 2 -8 -13 -11 -6 -4 -3 -3 -2 -0 1 1 0 -0 -1 -0 -0 0 0 0 0 -1 -2 -2 -3 -3 -3 -3 -3 -3 -3 -3 -4 -5 -5 -5 -5 -5 -5 -5 -4 -3 -1 1 3 4 4 4 3 2 1 -0 -1 1 5 5 3 -1 -2 -3 -3 -4 -4 -2 -1 -0 -1 -2 -3 -4 -5 -5 -4 -3 -1 5 9
-2 -2 -3 1 3 1 -6 -8 -4 1 1 -6 -8 -7 -4 -5 -5 -4 -3 -3 -2 -1 -1 -2 -3 -2 -1 -1 -0 -0 -1 -1 -2 -2 -2 -2 -3 -4 -4 -4 -4 -3 -4 -3 -2 -2 -1 -1 -1 -1 -1 1 2 2 1 1 0 0 -0 -1 -2 -2 -0 4 5 4 1 -0 -0 -1 -2 -4 -4 -3 -1 -2 -2 -3 -4 -4 -3 -1 2 1 2 4
2 1 -3 0 1 1 -1 -4 -5 -5 -1 -3 -4 -5 -3 -5 -5 -5 -4 -3 -3 -3 -3 -3 -3 -3 -3 -2 -1 -0 -0 -1 -1 -2 -2 -3 -4 -4 -4 -4 -3 -2 -1 -1 -0 0 1 2 1 0 -1 -3 -3 -4 -4 -4 -3 -2 -1 -2 -3 -2 0 4 5 4 2 1 2 2 1 -1 -3 -3 -3 -3 -3 -2 -2 -3 -2 1 4 4 3 2
3 4 1 1 -2 -4 -4 -1 -2 -4 -5 -4 -3 -4 -4 -4 -5 -6 -5 -4 -4 -4 -4 -3 -3 -3 -4 -3 -2 -1 -1 -1 -1 -2 -3 -3 -4 -4 -4 -3 -1 -1 0 -0 0 1 2 2 1 -2 -6 -8 -8 -8 -7 -6 -5 -3 -2 -2 -2 -1 2 3 3 3 2 1 2 3 3 2 0 -1 -3 -3 -2 -1 -0 -2 -1 1 3 4 5 5
3 5 3 0 -4 -7 -7 -4 -3 -4 -6 -6 -4 -3 -2 -4 -5 -6 -6 -6 -6 -5 -5 -4 -3 -3 -3 -3 -2 -2 -1 -1 -1 -2 -2 -3 -3 -3 -3 -2 -1 -1 -0 -0 -1 -1 -1 -2 -4 -6 -8 -9 -9 -8 -7 -6 -5 -4 -3 -2 -2 -1 0 1 1 1 2 1 1 1 1 2 2 1 -1 -2 -2 -1 -0 -1 -1 -0 1 2 3 5
1 1 2 -1 -4 -5 -4 -4 -4 -3 -4 -6 -6 -4 -2 -3 -3 -4 -5 -5 -6 -6 -6 -5 -3 -2 -2 -2 -1 -1 -1 -1 -0 -0 -1 -1 -2 -2 -2 -2 -2 -2 -1 -2 -3 -4 -5 -4 -4 -4 -5 -6 -6 -6 -6 -5 -5 -5 -4 -4 -3 -3 -2 -2 -1 -0 1 1 1 -0 -1 1 2 2 1 -0 -1 -1 -1 -1 -1 -1 -0 1 2 4
-5 -8 -2 -0 -3 -7 -6 -4 -3 -1 -1 -3 -4 -5 -6 -5 -4 -3 -4 -4 -5 -6 -7 -6 -4 -2 -1 -1 -1 -1 -1 -1 -0 0 0 0 -0 -1 -1 -2 -2 -3 -3 -4 -4 -4 -4 -3 -2 -1 -1 -2 -4 -5 -5 -4 -4 -4 -5 -5 -4 -4 -4 -4 -3 -2 -1 1 0 -0 -1 -0 1 1 2 1 -0 -1 -1 -0 -0 -1 -1 -0 0 3
-5 -9 -8 -1 -1 -4 -10 -9 -5 -0 2 1 -1 -3 -6 -7 -7 -5 -4 -3 -4 -4 -5 -7 -6 -5 -2 -0 0 -0 -0 -0 -0 0 0 0 0 0 -0 -2 -3 -3 -3 -3 -2 -2 -2 -1 -1 -0 0 -0 -1 -2 -3 -2 -2 -2 -3 -4 -5 -4 -4 -3 -3 -2 -2 -1 -1 -1 -1 -0 -0 -0 1 1 1 0 0 1 1 0 -0 -0 -0 1
-2 -3 -7 -6 -3 -0 -3 -9 -8 -4 3 2 1 0 -1 -4 -6 -7 -7 -5 -4 -3 -4 -6 -7 -7 -5 -2 0 1 0 1 1 1 1 1 1 0 -0 -1 -2 -2 -2 -1 -1 -1 -2 -1 -1 -1 0 1 1 0 -1 -0 0 0 -1 -2 -3 -3 -3 -3 -2 -2 -3 -2 -2 -2 -1 -1 -1 -1 -0 0 1 1 1 2 2 1 -0 0 1 2
-5 -5 -4 -7 -6 -3 -0 -3 -5 -4 0 1 0 0 1 1 -1 -4 -7 -9 -7 -5 -4 -4 -5 -6 -7 -6 -3 0 1 0 1 1 2 2 1 1 0 -1 -1 -2 -2 -2 -2 -1 -1 -1 -1 -1 -0 0 1 1 1 1 2 2 2 1 -0 -2 -4 -3 -3 -3 -3 -3 -4 -4 -3 -2 -2 -1 -0 0 1 1 0 1 2 2 -0 0 1 3
-7 -8 -6 -6 -5 -5 -3 -3 -3 -2 0 0 -1 -3 -3 -0 1 -0 -3 -7 -8 -7 -5 -4 -3 -3 -4 -6 -5 -3 -0 -0 -0 -0 1 1 2 2 1 -0 -1 -1 -2 -2 -2 -1 -0 -1 -1 -1 -1 -1 -0 1 2 2 2 2 3 3 2 0 -3 -5 -5 -4 -3 -4 -4 -5 -4 -3 -2 -1 -0 0 0 1 1 0 1 2 1 1 2 3
-7 -5 -3 -3 -3 -3 -3 -3 -3 -3 -1 1 -0 -2 -5 -3 -1 -0 -1 -4 -5 -5 -4 -5 -5 -4 -3 -3 -4 -4 -3 -2 -1 -1 -0 0 1 1 0 -1 -1 -1 -2 -3 -2 -1 0 -0 -1 -1 -1 -1 -1 0 2 2 2 2 3 4 4 3 0 -4 -5 -5 -4 -4 -4 -4 -4 -4 -3 -2 -1 -0 0 0 1 1 1 2 2 2 1 1
-4 -1 -0 -2 -3 -3 -2 -1 -1 -2 -3 -1 -0 -1 -2 -3 -2 -1 -1 -4 -4 -4 -2 -4 -5 -5 -4 -3 -3 -2 -3 -3 -3 -2 -1 0 1 1 -0 -2 -1 -1 -1 -3 -3 -1 1 -1 -2 -2 -1 -1 -0 0 2 2 2 3 3 4 4 3 2 -1 -4 -6 -5 -4 -4 -3 -4 -4 -3 -2 -1 -1 -0 0 0 1 1 1 1 0 -1 -0
2 2 1 -2 -3 -3 -2 -1 -1 -2 -3 -2 -1 -1 -2 -2 -2 -1 -0 -4 -5 -5 -3 -4 -5 -5 -3 -2 -1 -1 -2 -3 -3 -4 -4 -1 1 2 1 -2 -2 -2 -1 -2 -3 -2 -0 -1 -2 -2 -0 0 1 1 2 2 1 1 0 0 1 2 2 -0 -3 -5 -5 -4 -3 -3 -3 -3 -3 -3 -2 -1 -1 -0 0 1 1 1 1 -1 -2 -2
4 4 3 -2 -3 -3 -1 0 -1 -3 -4 -3 -2 -1 -1 -3 -3 -2 -0 -3 -4 -4 -2 -4 -6 -7 -7 -3 0 1 -0 -2 -4 -5 -6 -4 0 4 2 -2 -4 -4 -1 -1 -2 -3 -2 -2 -2 -2 -1 1 2 2 1 1 -0 -1 -2 -2 -2 -1 1 1 -2 -5 -5 -4 -3 -3 -2 -2 -3 -3 -3 -3 -2 -1 -0 1 1 1 2 -0 -3 -4
2 3 1 -1 -3 -4 -3 0 0 -1 -3 -3 -2 -1 -0 -1 -2 -2 -0 -2 -2 -2 -1 -0 -1 -4 -10 -9 -5 0 1 -2 -5 -6 -7 -6 -2 3 4 -0 -5 -7 -4 -2 -2 -2 -2 -1 -1 -1 -1 1 2 2 1 -0 -1 -2 -2 -3 -3 -2 0 2 0 -3 -5 -3 -2 -2 -2 -2 -2 -3 -4 -3 -3 -2 -1 -0 1 2 3 2 -1 -4
-1 0 1 -0 -3 -5 -4 -2 -2 -2 -2 -3 -3 -3 -1 -1 -0 0 -0 -0 0 -0 -2 -1 0 0 -2 -7 -8 -5 2 -1 -5 -8 -9 -9 -4 1 6 2 -2 -6 -6 -3 -2 -1 -1 -0 -0 -0 -0 0 1 1 0 -0 -1 -1 -2 -2 -2 -2 -0 2 1 -1 -5 -4 -2 -2 -2 -2 -2 -2 -2 -3 -3 -2 -1 -1 -1 0 2 3 1 -2
-3 -2 1 -1 -2 -3 -2 -1 -1 -1 -1 -2 -2 -2 -2 -2 -0 1 0 -0 0 0 -1 -1 -2 -2 0 -4 -6 -5 2 -1 -4 -7 -10 -13 -9 -2 7 3 -2 -5 -5 -3 -1 0 0 -0 -1 -1 -1 -1 -1 -0 0 1 1 0 -0 -1 -2 -2 -1 1 2 0 -4 -4 -4 -3 -3 -3 -2 -1 -1 -1 -2 -2 -1 -1 -1 -1 0 2 2 -1
-3 -3 -0 0 -0 -2 -3 -2 -0 1 0 -1 1 2 1 -2 -1 -0 -2 -1 -1 -0 1 1 -1 -2 -1 -2 -2 -0 3 1 -2 -6 -11 -15 -12 -5 5 3 -2 -6 -7 -3 -0 1 0 -1 -1 -1 -1 -1 -1 -0 1 1 1 1 1 -0 -1 -2 -2 -1 0 0 -1 -3 -4 -4 -4 -3 -3 -2 -2 -1 -2 -2 -2 -1 -0 0 0 3 3 1
-3 -5 -3 3 5 4 -2 -4 -3 -1 -0 1 2 3 0 -1 -1 -1 -3 -0 1 2 3 3 1 -1 2 3 3 3 5 2 -2 -7 -14 -17 -15 -8 4 3 -1 -6 -8 -4 -0 2 0 -1 -2 -2 -1 -0 1 1 1 1 0 1 1 0 -0 -1 -2 -1 -1 -0 -0 -0 -2 -4 -5 -3 -2 -2 -2 -2 -2 -2 -1 0 1 2 3 3 4 3
-1 -4 -5 1 5 4 -2 -5 -4 -2 2 4 5 3 -2 -1 -1 -1 -0 4 5 6 6 5 4 5 7 7 5 2 3 1 -1 -4 -9 -15 -18 -13 6 4 -1 -6 -9 -5 -1 1 -0 -2 -3 -2 -1 0 1 1 1 -0 -0 -0 0 1 1 1 0 -1 -1 -0 0 1 1 -1 -4 -4 -2 -2 -2 -2 -1 -1 -0 1 3 4 5 5 4 3
1 -2 -4 -0 2 3 2 1 0 1 4 6 5 3 1 5 7 7 8 12 15 15 13 10 7 4 3 2 -0 -1 0 1 1 -1 -1 -10 -18 -16 3 3 -1 -6 -9 -5 -1 -0 -1 -2 -2 -1 -0 -0 0 0 -0 -1 -1 -1 -1 0 1 2 2 1 0 -0 -0 1 2 2 -0 -2 -3 -3 -2 -0 -0 0 1 2 3 4 5 5 5 4
1 1 1 4 7 10 11 11 11 11 11 11 11 13 16 21 22 23 23 18 13 7 2 -1 -4 -5 -5 -0 0 -1 -2 1 2 1 -0 -8 -14 -13 -2 1 -2 -7 -10 -4 -1 -1 -3 -3 -2 -1 -1 -1 -0 0 -0 -1 -2 -2 -2 -0 1 3 5 5 3 1 -1 -0 1 2 2 0 -2 -4 -2 0 1 1 1 1 2 3 3 4 4 3
3 4 6 8 10 12 14 14 15 15 15 18 23 26 24 17 11 4 -1 -3 -3 -3 -3 -3 -5 -8 -9 -3 -2 -4 -6 1 2 1 -0 -6 -11 -11 -3 1 -1 -6 -10 -5 -2 -1 -4 -4 -2 0 0 0 1 1 -0 -1 -2 -2 -2 -0 1 3 5 6 4 2 -2 -2 -1 1 3 2 -1 -3 -2 -0 0 1 1 1 1 1 1 2 2 2
5 6 7 6 5 5 5 4 4 4 6 7 5 1 -3 -4 -5 -5 -5 -4 -2 -1 -1 -2 -5 -7 -7 -3 -4 -6 -5 -1 1 1 1 -2 -8 -11 -6 1 -0 -4 -9 -6 -3 -1 -3 -4 -3 0 1 2 2 1 -0 -1 -1 -2 -1 -1 -1 -0 -0 0 -0 -1 -2 -3 -3 -1 2 1 -1 -3 -1 -1 -1 -1 1 1 1 2 2 2 2 1
4 3 2 1 0 -0 -0 -0 -1 -1 -1 -0 0 1 1 0 -0 -1 -0 1 1 1 0 -2 -5 -7 -7 -4 -4 -4 -2 -0 0 1 2 1 -4 -8 -8 -1 -0 -3 -7 -7 -4 -2 -2 -5 -3 -0 2 2 1 0 -0 -1 -1 -2 -2 -3 -4 -5 -6 -5 -3 -2 -1 -2 -3 -2 0 1 -0 -1 -1 -2 -2 -2 0 2 3 3 4 4 2 0
4 2 1 0 -0 -0 -0 -1 -2 -3 -4 -4 -2 1 5 6 7 6 5 3 2 1 -0 -1 -2 -4 -5 -5 -4 -3 -0 -1 -1 0 4 3 -1 -6 -7 -1 -0 -2 -6 -9 -8 -4 -1 -3 -2 -0 2 2 1 -0 -0 -1 -1 -2 -3 -4 -5 -6 -7 -5 -3 -1 1 0 -1 -3 -2 0 1 0 -0 -2 -3 -2 -0 2 4 5 6 3 1 -2
4 3 2 2 1 1 0 -1 -3 -4 -4 -3 -1 1 5 6 6 5 0 -0 0 1 -1 -1 -1 -1 -3 -4 -5 -4 -2 -3 -1 2 4 3 -1 -4 -4 -0 -0 -2 -4 -9 -11 -9 -4 -2 -1 0 1 1 1 0 0 -0 -1 -2 -3 -4 -5 -6 -6 -6 -4 -2 1 1 0 -1 -3 -3 -2 -0 0 -2 -3 -2 -0 1 4 5 5 2 -1 -3
1 -0 -0 0 1 1 0 -0 -1 -2 -2 -1 -0 1 2 2 1 0 -2 -0 1 1 -0 -1 -1 -1 -1 -2 -3 -4 -6 -3 1 5 3 3 -0 -3 -2 -0 -0 -1 -1 -6 -11 -14 -13 -5 -0 2 0 0 0 1 1 1 0 -0 -2 -3 -5 -6 -6 -5 -5 -4 -2 0 1 1 -2 -4 -4 -3 -2 -3 -2 -1 0 1 3 4 3 0 -2 -4
-2 -3 -4 -3 -2 -1 -1 -1 -1 -1 -1 -0 -0 0 0 0 0 0 0 1 2 2 1 0 -0 -0 1 1 0 -3 -8 -4 2 6 4 3 -1 -3 -1 -0 -2 -2 1 1 -3 -9 -17 -15 -6 2 2 -0 -0 0 1 2 1 1 -0 -2 -3 -4 -3 -4 -4 -5 -5 -3 -2 -1 -1 -2 -3 -4 -4 -2 1 2 2 2 2 1 -1 -3 -5 -7
-2 -3 -4 -4 -3 -3 -2 -1 -1 -1 -0 -0 0 1 1 1 2 1 1 2 2 2 3 2 1 1 1 2 1 -2 -8 -6 -1 4 5 3 -1 -4 -1 0 -1 -2 1 2 3 0 -8 -18 -13 -3 1 0 0 0 1 2 2 1 0 -1 -2 -1 -0 -1 -3 -5 -7 -6 -6 -5 -3 -3 -4 -4 -5 -3 -1 0 1 1 -0 -2 -4 -6 -8 -9
-1 -2 -3 -3 -3 -3 -2 -1 -1 -1 -0 -0 -0 0 1 1 1 2 2 2 2 3 3 3 2 1 0 -0 -2 -4 -7 -5 -1 3 6 4 1 -2 -2 -0 -0 -1 -1 0 2 2 -2 -11 -13 -10 -5 -2 -0 0 1 1 2 2 1 -0 -1 -0 1 -1 -3 -5 -6 -7 -7 -7 -7 -6 -5 -5 -5 -5 -4 -4 -3 -2 -3 -5 -7 -9 -9 -9
-1 -2 -2 -2 -2 -2 -2 -1 -1 -0 -0 0 0 1 1 1 1 1 1 2 2 2 2 3 3 2 1 0 -3 -6 -8 -5 1 5 6 5 2 -0 -1 0 0 -0 -1 -2 -1 -0 -2 -7 -8 -9 -10 -8 -4 -0 1 2 3 3 2 0 -0 -0 0 -0 -2 -3 -5 -6 -7 -8 -8 -7 -6 -6 -6 -6 -6 -6 -6 -4 -4 -5 -8 -9 -9 -8
-2 -2 -2 -2 -2 -2 -3 -2 -1 -1 -0 0 1 1 1 1 1 1 1 1 1 2 2 2 2 2 3 2 -1 -5 -10 -4 2 7 6 5 3 1 0 -0 0 1 1 -1 -1 -1 -3 -6 -6 -5 -8 -12 -9 -3 2 4 3 2 1 1 -0 -1 -1 -0 -0 -1 -3 -5 -6 -7 -7 -6 -6 -6 -7 -7 -7 -7 -6 -4 -4 -4 -7 -8 -8 -7
-3 -3 -2 -1 -1 -2 -2 -2 -1 -1 -1 -0 0 1 1 1 1 1 1 1 1 2 2 2 2 2 2 2 0 -3 -8 -4 1 6 6 5 4 3 2 -1 -0 1 2 -1 -1 -1 -2 -5 -6 -5 -4 -10 -11 -8 -0 4 3 1 -0 1 1 0 -0 1 1 -0 -3 -5 -6 -6 -4 -4 -4 -5 -7 -6 -5 -4 -3 -2 -2 -3 -6 -7 -7 -6
-2 -2 -1 -1 -0 -0 -1 -1 -1 -1 -1 -1 -1 -0 1 1 1 1 1 1 1 2 2 2 2 2 2 1 -1 -3 -6 -4 -0 3 5 4 5 4 2 -1 -0 2 3 0 -1 -1 -1 -3 -5 -6 -5 -6 -9 -9 -5 1 1 0 0 2 2 2 1 3 2 -0 -3 -4 -4 -4 -3 -2 -3 -4 -4 -3 -1 0 2 1 -0 -2 -3 -4 -5 -5
-3 -2 -2 -1 -1 -0 0 -0 -0 0 0 -0 -1 -1 -1 0 1 1 1 1 1 1 1 1 1 1 1 1 -0 -2 -4 -3 -2 0 3 4 4 4 2 -1 -1 0 2 1 1 1 1 -1 -3 -6 -8 -8 -8 -7 -5 -2 -1 -1 2 3 2 1 1 3 2 0 -2 -3 -3 -4 -3 -3 -2 -2 -2 -1 1 3 3 1 -1 -1 0 0 -1 -1
-3 -3 -2 -1 -1 -0 0 0 1 1 1 1 0 -0 -1 -1 -0 0 1 1 1 1 1 1 0 -0 -1 -0 -1 -1 -1 -2 -1 -0 2 3 3 3 2 0 -1 -2 -0 1 2 2 2 0 -1 -4 -6 -9 -11 -9 -4 -2 -1 -0 1 -0 -1 -2 1 2 2 0 -0 -2 -4 -6 -6 -4 -2 -1 -2 -1 1 1 -1 -4 -4 -2 1 2 1 1
-3 -2 -1 -0 1 2 2 2 1 1 1 1 1 1 0 -1 -1 -1 -0 0 1 1 1 1 1 0 -0 -0 -0 0 1 0 0 1 1 2 2 2 2 1 -1 -2 -0 1 2 2 2 -0 -3 -4 -3 -5 -8 -9 -7 -4 -1 0 -0 -4 -4 -1 4 3 2 1 1 -2 -4 -6 -6 -3 -1 -1 -2 -1 -1 -2 -4 -3 -2 -0 0 -0 -2 -2
-2 -2 -2 -1 -0 0 1 2 2 2 2 2 2 1 1 -0 -2 -3 -3 -2 -1 -0 0 1 1 0 0 1 1 2 2 2 1 1 1 1 1 2 2 1 -0 -0 1 1 0 0 1 -0 -2 -4 -4 -4 -5 -7 -8 -5 -2 0 0 -3 -3 -1 3 2 1 2 1 -1 -3 -4 -3 -2 -1 -1 -1 -1 -3 -5 -4 1 3 2 2 0 -4 -7
-0 -0 -1 -1 -2 -2 -1 -0 1 2 3 3 3 2 2 2 0 -1 -3 -3 -3 -3 -2 -1 -1 -2 -3 -1 1 3 4 3 2 1 0 0 1 1 1 1 1 1 2 1 -0 -1 -1 0 -1 -3 -5 -3 -3 -6 -11 -8 -3 1 2 -0 -2 -4 -6 -5 -0 4 2 0 -0 -0 -1 -3 -4 -4 -2 -3 -4 -5 -3 -0 1 2 3 -0 -3 -6
1 1 1 0 -0 -0 -0 -1 -0 0 1 1 1 2 3 3 3 2 1 -1 -2 -2 -2 -1 -1 -1 -2 -3 -1 1 4 4 4 3 2 1 1 1 1 1 2 2 3 2 -0 -2 -3 -0 -1 -4 -5 -1 -0 -3 -10 -10 -7 -2 1 2 -0 -5 -14 -7 2 8 5 2 1 0 -2 -4 -4 -4 -1 -1 -3 -4 -5 -3 0 3 4 0 -2 -5
1 2 1 1 -0 -1 -1 -1 -0 0 1 1 1 1 2 3 3 3 2 1 0 -0 0 -0 -0 -1 -1 -2 -2 -1 1 3 4 4 4 3 3 2 2 2 2 2 3 2 -0 -2 -3 -3 -4 -4 -1 2 1 -3 -9 -9 -8 -4 -1 1 1 -1 -6 -3 2 5 3 1 -0 -2 -4 -3 -1 0 1 -0 -1 -3 -4 -2 2 5 5 3 1 -2
1 1 1 1 -0 -1 -2 -1 -1 0 1 1 1 1 2 2 3 3 2 1 0 0 1 0 -0 -2 -2 -2 -2 -2 -1 1 3 4 4 4 4 4 4 3 3 2 2 1 -0 -1 -0 -4 -6 -5 1 3 1 -3 -8 -8 -7 -5 -3 0 2 2 -0 -1 -3 -3 -4 -2 -2 -3 -2 0 1 1 -1 -4 -6 -6 -5 -1 1 2 -0 -1 -2 -4
0 0 1 0 0 0 0 0 -0 -0 -0 0 1 2 2 2 2 2 2 1 1 0 1 1 1 1 -1 -2 -2 -2 -2 -2 0 2 4 4 5 5 5 4 3 3 2 0 -1 -1 -2 -4 -4 -3 1 1 -3 -7 -10 -5 -4 -3 -4 2 6 6 3 -2 -5 -5 -3 -2 -2 -1 3 4 4 1 -4 -6 -5 -4 -4 -1 -1 -3 -5 -5 -6 -6
-1 -0 0 0 0 0 0 0 -0 -1 -1 -0 1 2 2 2 1 1 1 1 1 0 -0 1 1 2 2 0 -0 -1 -3 -4 -3 -1 1 3 4 4 5 4 3 2 1 -0 -1 -2 -4 -4 -2 0 2 0 -6 -11 -12 -4 0 1 -0 4 7 6 1 -3 -1 2 5 1 -0 1 6 5 3 -0 -4 -2 0 2 0 -1 -2 -3 -3 -4 -5 -5
0 0 1 1 0 -0 -0 -0 -1 -1 -2 -2 -1 0 2 2 2 1 -0 0 0 0 -0 -0 0 1 1 1 1 1 -0 -2 -3 -3 -1 1 2 3 4 4 4 3 2 1 -0 -2 -4 -3 -2 -1 1 0 -4 -8 -9 -1 3 5 4 5 4 2 -4 -4 -0 4 4 0 -1 1 4 3 1 -1 -2 0 1 1 -0 -2 -4 -4 -2 -2 -3 -4
1 1 1 1 1 -0 -1 -1 -1 -2 -2 -3 -4 -3 -1 1 2 3 2 1 0 0 -0 -0 -0 -0 -0 0 1 1 1 1 -0 -1 -1 -0 0 1 2 3 3 3 3 3 2 1 -1 -2 -3 -3 -2 -0 -1 -2 -3 1 4 5 4 2 -1 -3 -6 -6 -3 -0 -0 -2 -1 1 2 1 1 1 3 1 -1 -2 -0 -1 -2 -3 -3 -3 -3 -4
2 2 3 2 1 1 0 -0 -1 -2 -3 -3 -4 -4 -4 -2 0 2 2 2 1 1 2 1 1 -0 -1 -1 0 1 2 1 0 -0 0 0 0 0 1 1 2 2 2 3 3 3 3 1 -1 -1 -1 1 2 2 0 -0 1 1 -0 -3 -4 -4 -5 -6 -4 -1 1 1 2 3 3 2 2 2 2 1 0 1 4 4 2 -1 -4 -2 -2 -3
1 2 2 2 1 1 0 -0 -1 -1 -2 -2 -2 -3 -3 -3 -2 -1 1 1 2 2 2 2 2 1 0 -0 0 1 2 2 1 -0 0 1 1 1 0 0 -0 -1 -1 -1 -0 1 1 1 1 1 2 3 3 3 1 -1 -1 -2 -3 -4 -3 -1 -1 -3 -3 -0 3 4 5 5 4 2 -1 -4 -7 -1 4 7 6 3 0 -3 -7 -4 -3 -3
Height
1385 1382 1381 1379 1378 1376 1373 1372 1371 1369 1366 1364 1363 1361 1360 1359 1357 1356 1356 1354 1353 1352 1351 1350 1350 1349 1349 1349 1349 1348 1348 1348 1347 1347 1347 1347 1348 1348 1348 1348 1348 1348 1348 1348 1348 1348 1349 1350 1350 1351 1352 1352 1353 1353 1354 1354 1354 1354 1355 1355 1356 1357 1358 1358 1359 1360 1361 1363 1364 1366 1367 1369 1371 1372 1374 1376 1379 1380 1382 1384 1385 1387 1390 1392 1396 1399
1384 1381 1380 1378 1377 1375 1372 1371 1370 1369 1366 1364 1362 1360 1359 1357 1356 1354 1353 1353 1352 1351 1350 1349 1348 1348 1347 1347 1347 1347 1346 1346 1346 1346 1346 1346 1346 1346 1346 1346 1346 1346 1346 1346 1346 1347 1348 1349 1350 1350 1351 1351 1352 1352 1352 1352 1352 1352 1353 1353 1354 1355 1356 1357 1358 1359 1361 1362 1364 1365 1366 1367 1369 1370 1372 1375 1376 1378 1380 1382 1384 1386 1389 1391 1394 1397
1382 1381 1378 1377 1376 1374 1371 1369 1368 1367 1366 1363 1361 1359 1357 1356 1354 1353 1352 1351 1350 1350 1349 1348 1347 1346 1346 1346 1346 1345 1345 1345 1345 1344 1344 1344 1344 1344 1344 1344 1344 1344 1344 1345 1345 1346 1347 1347 1348 1349 1350 1350 1350 1349 1349 1349 1350 1350 1351 1352 1353 1354 1355 1356 1357 1358 1360 1362 1363 1364 1365 1366 1367 1368 1370 1372 1374 1376 1378 1380 1382 1385 1387 1390 1392 1395
1381 1380 1377 1376 1374 1372 1371 1369 1367 1365 1364 1362 1360 1358 1356 1355 1353 1352 1351 1350 1349 1348 1347 1346 1346 1345 1345 1344 1344 1344 1343 1343 1343 1343 1343 1342 1342 1342 1342 1342 1342 1343 1343 1343 1344 1345 1345 1346 1347 1347 1347 1347 1346 1346 1346 1347 1348 1348 1349 1350 1351 1352 1353 1354 1355 1357 1359 1360 1361 1363 1364 1365 1366 1367 1368 1370 1372 1374 1376 1379 1381 1383 1386 1388 1390 1393
1380 1379 1377 1375 1373 1371 1368 1367 1366 1364 1362 1360 1358 1357 1355 1354 1352 1351 1350 1349 1348 1347 1346 1345 1345 1344 1343 1343 1342 1342 1342 1341 1341 1341 1341 1341 1341 1341 1341 1341 1341 1341 1341 1342 1342 1343 1343 1344 1344 1344 1344 1344 1344 1345 1345 1346 1346 1347 1348 1349 1350 1351 1352 1353 1354 1356 1357 1359 1360 1361 1363 1364 1365 1366 1367 1369 1371 1373 1375 1377 1379 1381 1384 1386 1389 1391
1379 1378 1376 1374 1372 1369 1367 1365 1364 1362 1360 1358 1357 1356 1354 1353 1351 1350 1349 1347 1346 1346 1345 1344 1343 1342 1342 1341 1341 1341 1340 1340 1340 1339 1339 1339 1339 1339 1339 1339 1339 1339 1340 1340 1340 1340 1340 1340 1341 1341 1341 1342 1343 1344 1344 1345 1346 1347 1348 1348 1349 1350 1351 1352 1353 1354 1356 1357 1358 1360 1361 1363 1364 1365 1366 1367 1369 1371 1373 1375 1377 1379 1382 1384 1387 1390
1377 1376 1375 1373 1371 1368 1366 1364 1362 1361 1360 1357 1355 1354 1353 1352 1351 1349 1348 1347 1346 1344 1343 1342 1341 1341 1341 1340 1340 1339 1339 1338 1338 1337 1337 1337 1337 1337 1337 1337 1337 1337 1337 1337 1337 1337 1337 1338 1338 1339 1340 1341 1342 1343 1343 1344 1345 1346 1347 1348 1348 1349 1350 1351 1352 1353 1355 1356 1357 1358 1360 1361 1362 1364 1365 1366 1368 1369 1371 1373 1375 1377 1380 1382 1385 1387
1376 1374 1373 1371 1369 1366 1364 1362 1361 1360 1359 1357 1355 1353 1351 1350 1349 1348 1347 1346 1345 1343 1342 1341 1340 1339 1339 1339 1338 1337 1337 1336 1336 1335 1335 1335 1335 1335 1335 1335 1335 1335 1335 1335 1335 1335 1336 1336 1336 1337 1338 1339 1340 1341 1342 1343 1345 1346 1346 1347 1348 1348 1349 1350 1351 1352 1353 1355 1356 1357 1358 1359 1361 1362 1364 1365 1366 1368 1369 1371 1373 1376 1378 1381 1383 1385
1375 1372 1371 1370 1368 1366 1363 1360 1359 1359 1359 1357 1356 1353 1351 1349 1347 1346 1345 1344 1343 1342 1341 1340 1338 1337 1337 1337 1336 1336 1335 1334 1334 1333 1333 1333 1333 1333 1333 1333 1333 1333 1333 1333 1333 1334 1334 1334 1335 1336 1336 1337 1338 1340 1341 1342 1343 1344 1345 1346 1347 1347 1348 1349 1350 1351 1352 1353 1355 1356 1357 1358 1359 1361 1362 1364 1365 1366 1368 1370 1372 1374 1376 1379 1381 1383
1374 1372 1370 1367 1366 1365 1363 1360 1358 1357 1357 1356 1355 1353 1352 1350 1347 1345 1344 1342 1342 1341 1340 1339 1337 1336 1335 1335 1335 1334 1333 1333 1332 1332 1332 1332 1331 1331 1331 1331 1331 1331 1331 1331 1332 1332 1332 1333 1333 1334 1335 1336 1337 1338 1339 1341 1342 1343 1344 1345 1346 1346 1346 1347 1348 1349 1351 1352 1353 1355 1356 1357 1358 1360 1361 1362 1364 1365 1367 1368 1370 1372 1374 1377 1380 1382
1372 1371 1369 1366 1365 1363 1362 1360 1358 1356 1356 1355 1354 1352 1351 1350 1348 1346 1343 1341 1339 1339 1338 1337 1336 1335 1333 1332 1332 1332 1331 1331 1331 1330 1330 1330 1330 1330 1330 1330 1330 1330 1330 1330 1330 1330 1330 1331 1331 1332 1333 1334 1335 1336 1337 1339 1340 1341 1342 1343 1344 1344 1345 1346 1346 1348 1349 1350 1352 1353 1354 1356 1357 1358 1360 1361 1362 1364 1365 1366 1368 1371 1373 1376 1378 1380
1371 1370 1368 1366 1363 1362 1360 1359 1357 1356 1355 1354 1352 1351 1350 1349 1348 1346 1344 1341 1339 1337 1336 1336 1335 1334 1333 1331 1331 1330 1330 1329 1329 1328 1328 1328 1328 1328 1328 1328 1328 1328 1328 1328 1328 1328 1329 1329 1329 1330 1331 1332 1333 1334 1335 1336 1338 1339 1340 1341 1342 1342 1343 1344 1345 1346 1347 1349 1350 1351 1353 1354 1355 1357 1358 1359 1361 1362 1364 1365 1366 1368 1371 1373 1376 1378
1370 1368 1366 1364 1362 1361 1359 1358 1356 1355 1354 1353 1352 1350 1348 1347 1346 1345 1343 1341 1339 1337 1336 1334 1333 1332 1331 1331 1330 1329 1328 1327 1327 1326 1326 1326 1326 1326 1326 1326 1326 1326 1326 1326 1326 1326 1327 1327 1327 1328 1329 1330 1331 1332 1333 1335 1336 1337 1338 1339 1340 1341 1341 1342 1343 1345 1346 1347 1349 1350 1351 1352 1354 1355 1356 1358 1359 1361 1362 1363 1365 1366 1369 1371 1373 1376
1369 1367 1365 1363 1361 1360 1359 1357 1356 1354 1353 1352 1351 1350 1348 1346 1345 1344 1342 1340 1338 1337 1336 1334 1332 1330 1330 1330 1329 1328 1327 1326 1326 1325 1325 1325 1325 1325 1324 1324 1324 1324 1324 1324 1324 1324 1325 1325 1325 1326 1327 1328 1329 1330 1331 1333 1334 1335 1336 1337 1337 1338 1339 1340 1341 1343 1345 1346 1347 1349 1350 1351 1352 1353 1355 1356 1357 1359 1360 1361 1363 1365 1366 1369 1371 1373
1367 1366 1364 1362 1360 1359 1357 1356 1355 1353 1352 1351 1350 1348 1346 1345 1344 1343 1341 1339 1337 1336 1335 1333 1331 1329 1329 1329 1328 1328 1327 1326 1325 1323 1323 1322 1323 1323 1322 1322 1322 1322 1322 1322 1322 1322 1323 1323 1323 1324 1325 1326 1327 1328 1330 1331 1331 1332 1333 1334 1335 1336 1337 1338 1340 1341 1343 1344 1346 1347 1348 1349 1351 1352 1353 1354 1356 1357 1358 1360 1361 1363 1364 1366 1369 1371
1367 1365 1363 1361 1359 1357 1356 1355 1354 1352 1351 1349 1348 1347 1346 1344 1343 1342 1341 1339 1337 1335 1334 1332 1330 1328 1327 1327 1327 1327 1326 1325 1324 1322 1321 1320 1321 1321 1321 1321 1320 1320 1320 1320 1320 1321 1321 1321 1321 1322 1323 1324 1326 1326 1327 1328 1329 1330 1331 1332 1334 1335 1336 1336 1338 1339 1341 1342 1343 1345 1346 1347 1349 1350 1351 1352 1354 1355 1356 1358 1360 1361 1363 1365 1367 1370
1366 1364 1362 1360 1357 1356 1355 1354 1352 1351 1349 1348 1347 1346 1345 1343 1342 1341 1340 1338 1336 1335 1334 1332 1331 1328 1326 1326 1326 1326 1326 1325 1323 1321 1320 1318 1319 1319 1320 1319 1318 1318 1318 1318 1318 1319 1319 1319 1320 1320 1321 1322 1323 1324 1325 1326 1327 1328 1330 1331 1332 1333 1334 1335 1336 1337 1339 1340 1341 1343 1344 1346 1347 1348 1350 1351 1352 1354 1355 1356 1358 1359 1361 1363 1366 1368
1364 1363 1361 1359 1356 1354 1353 1352 1351 1350 1348 1347 1346 1344 1343 1342 1341 1340 1338 1337 1336 1335 1333 1332 1331 1329 1326 1325 1325 1325 1325 1324 1322 1321 1319 1317 1316 1317 1318 1317 1317 1316 1316 1316 1316 1317 1317 1317 1317 1318 1319 1320 1321 1322 1323 1324 1325 1326 1328 1329 1330 1331 1332 1333 1334 1336 1337 1338 1340 1341 1342 1344 1345 1347 1348 1349 1351 1352 1353 1355 1356 1358 1359 1361 1364 1366
1363 1361 1360 1357 1355 1353 1352 1351 1349 1348 1347 1346 1344 1343 1341 1340 1339 1338 1337 1336 1335 1334 1332 1331 1329 1328 1326 1325 1324 1324 1325 1324 1322 1320 1318 1316 1314 1315 1316 1316 1315 1314 1314 1314 1315 1315 1315 1315 1316 1316 1317 1318 1319 1320 1321 1322 1323 1325 1326 1327 1328 1329 1330 1331 1332 1334 1335 1336 1338 1339 1340 1342 1343 1345 1346 1348 1349 1351 1352 1353 1355 1356 1358 1360 1362 1364
1361 1359 1358 1356 1354 1352 1350 1349 1348 1347 1346 1345 1344 1342 1341 1339 1338 1337 1336 1335 1333 1332 1331 1330 1328 1326 1325 1324 1324 1324 1324 1323 1322 1320 1317 1315 1313 1313 1314 1314 1313 1312 1311 1312 1312 1313 1313 1313 1313 1314 1315 1316 1317 1318 1319 1320 1321 1322 1324 1325 1326 1327 1328 1329 1331 1332 1333 1335 1336 1337 1338 1340 1341 1343 1345 1346 1347 1349 1351 1352 1354 1355 1357 1359 1361 1363
1359 1357 1356 1355 1353 1351 1349 1347 1346 1346 1345 1344 1342 1341 1339 1338 1336 1335 1334 1333 1332 1331 1329 1328 1327 1326 1325 1324 1323 1323 1322 1322 1321 1319 1317 1314 1311 1311 1312 1312 1311 1310 1309 1310 1311 1311 1311 1311 1311 1312 1312 1313 1314 1316 1316 1318 1319 1320 1321 1322 1324 1325 1326 1327 1329 1330 1331 1333 1334 1336 1337 1338 1340 1341 1343 1344 1346 1347 1349 1351 1352 1354 1356 1357 1359 1361
1358 1355 1353 1352 1351 1350 1347 1346 1345 1344 1344 1343 1341 1340 1338 1336 1335 1333 1332 1331 1330 1329 1328 1327 1326 1325 1324 1323 1322 1321 1321 1321 1320 1319 1316 1313 1310 1309 1311 1311 1310 1308 1307 1308 1308 1309 1309 1309 1309 1310 1311 1311 1312 1313 1314 1315 1316 1318 1319 1320 1321 1323 1324 1325 1326 1328 1329 1331 1332 1334 1335 1336 1337 1339 1341 1342 1344 1345 1347 1349 1351 1352 1354 1356 1357 1360
1356 1354 1351 1350 1349 1348 1346 1345 1343 1342 1342 1341 1340 1338 1336 1335 1333 1332 1331 1330 1330 1328 1327 1326 1324 1323 1322 1321 1320 1319 1319 1319 1318 1318 1316 1313 1309 1307 1309 1309 1308 1307 1306 1306 1306 1306 1306 1306 1307 1308 1309 1310 1311 1311 1312 1313 1314 1315 1316 1318 1319 1321 1322 1323 1324 1326 1327 1328 1330 1331 1333 1334 1336 1337 1339 1340 1342 1343 1345 1346 1348 1350 1352 1353 1355 1357
1355 1352 1350 1349 1348 1347 1346 1344 1343 1341 1341 1340 1338 1337 1336 1335 1334 1332 1331 1330 1328 1326 1325 1323 1322 1320 1319 1319 1318 1317 1317 1317 1317 1316 1315 1312 1309 1307 1307 1307 1306 1305 1304 1304 1304 1304 1304 1304 1305 1306 1307 1308 1309 1309 1310 1311 1312 1313 1314 1316 1317 1318 1320 1321 1322 1323 1324 1326 1327 1328 1330 1331 1333 1335 1336 1338 1340 1341 1342 1344 1346 1348 1350 1351 1353 1355
1353 1351 1350 1348 1347 1346 1345 1344 1342 1341 1340 1339 1338 1337 1335 1333 1331 1330 1328 1327 1326 1325 1323 1322 1320 1318 1317 1316 1316 1315 1315 1315 1315 1315 1313 1311 1308 1306 1306 1306 1305 1304 1302 1302 1302 1302 1301 1302 1303 1304 1305 1306 1307 1307 1308 1309 1310 1311 1312 1313 1315 1316 1317 1318 1319 1320 1321 1323 1324 1326 1327 1329 1331 1332 1334 1336 1337 1339 1341 1342 1344 1346 1348 1349 1351 1353
1352 1351 1349 1347 1345 1344 1343 1341 1340 1339 1338 1337 1335 1333 1331 1330 1329 1328 1327 1326 1325 1324 1322 1321 1319 1317 1316 1315 1314 1313 1313 1313 1313 1313 1312 1310 1307 1305 1304 1305 1304 1303 1301 1300 1300 1300 1300 1300 1301 1302 1303 1304 1305 1305 1306 1307 1308 1309 1310 1311 1312 1313 1314 1315 1316 1317 1319 1320 1321 1323 1324 1326 1328 1330 1331 1333 1335 1336 1338 1340 1342 1344 1346 1348 1349 1351
1351 1349 1346 1344 1342 1341 1340 1339 1337 1336 1335 1334 1333 1332 1331 1330 1328 1327 1326 1324 1323 1322 1321 1319 1317 1315 1314 1313 1312 1311 1311 1311 1311 1311 1311 1309 1307 1305 1303 1303 1303 1302 1300 1299 1298 1298 1298 1298 1299 1300 1301 1302 1303 1303 1304 1305 1306 1307 1308 1309 1310 1311 1311 1312 1314 1315 1316 1318 1319 1321 1322 1323 1325 1327 1329 1331 1332 1334 1336 1338 1340 1342 1344 1346 1347 1349
1349 1346 1344 1342 1340 1339 1337 1336 1335 1333 1332 1331 1331 1331 1330 1329 1327 1325 1324 1322 1321 1321 1320 1318 1316 1315 1313 1312 1311 1310 1310 1310 1310 1309 1309 1308 1306 1304 1302 1303 1302 1301 1300 1298 1296 1296 1297 1297 1297 1298 1299 1300 1301 1301 1302 1303 1304 1305 1306 1306 1307 1309 1310 1311 1312 1313 1314 1316 1317 1318 1319 1321 1322 1324 1326 1328 1330 1332 1334 1336 1338 1340 1342 1343 1345 1346
1348 1345 1343 1341 1339 1337 1336 1334 1332 1331 1330 1329 1329 1329 1328 1327 1325 1323 1321 1321 1320 1319 1318 1317 1316 1315 1313 1311 1309 1308 1308 1307 1307 1308 1308 1307 1305 1303 1302 1302 1302 1301 1300 1297 1295 1294 1294 1295 1296 1296 1297 1298 1299 1300 1300 1301 1302 1303 1304 1305 1306 1307 1308 1309 1310 1311 1312 1313 1315 1316 1317 1318 1320 1321 1324 1326 1328 1330 1332 1335 1336 1338 1339 1341 1342 1344
1346 1343 1341 1339 1337 1335 1334 1332 1331 1329 1328 1328 1327 1326 1325 1324 1323 1321 1320 1320 1319 1318 1316 1315 1314 1314 1312 1311 1309 1307 1306 1306 1306 1307 1306 1306 1304 1303 1302 1301 1301 1300 1300 1298 1296 1293 1291 1292 1294 1295 1295 1296 1296 1297 1298 1299 1300 1301 1302 1303 1304 1305 1306 1307 1308 1309 1310 1311 1312 1314 1315 1316 1318 1319 1321 1324 1326 1328 1330 1332 1334 1336 1337 1339 1340 1342
1344 1341 1339 1337 1335 1334 1332 1331 1329 1328 1327 1326 1325 1324 1323 1322 1321 1320 1319 1319 1318 1317 1316 1314 1313 1312 1312 1311 1309 1306 1304 1305 1306 1306 1306 1305 1303 1301 1301 1301 1300 1299 1300 1299 1298 1295 1291 1290 1291 1293 1294 1294 1295 1296 1296 1297 1298 1299 1300 1301 1301 1303 1304 1305 1306 1307 1308 1309 1310 1311 1312 1314 1315 1317 1319 1321 1322 1325 1327 1330 1332 1334 1335 1336 1338 1340
1343 1340 1338 1336 1334 1332 1331 1329 1327 1326 1325 1324 1323 1322 1321 1321 1320 1319 1318 1317 1316 1316 1315 1313 1312 1311 1310 1310 1308 1306 1303 1303 1304 1305 1305 1304 1302 1300 1300 1300 1299 1298 1299 1299 1299 1298 1295 1291 1289 1290 1291 1292 1293 1294 1295 1296 1296 1297 1298 1299 1300 1301 1302 1303 1304 1305 1306 1307 1308 1309 1310 1311 1313 1314 1316 1318 1320 1322 1324 1327 1330 1332 1333 1335 1337 1338
1342 1339 1337 1335 1333 1331 1329 1328 1326 1325 1324 1322 1321 1321 1320 1319 1318 1317 1317 1316 1315 1314 1313 1312 1311 1310 1308 1307 1306 1304 1302 1301 1302 1303 1303 1303 1301 1299 1298 1298 1298 1297 1297 1298 1298 1297 1296 1292 1290 1288 1289 1290 1291 1291 1293 1294 1295 1296 1296 1296 1297 1298 1300 1301 1302 1303 1304 1305 1306 1307 1308 1309 1311 1312 1314 1316 1318 1321 1323 1325 1328 1330 1332 1334 1335 1337
1341 1338 1336 1334 1332 1330 1328 1327 1325 1324 1322 1321 1320 1319 1318 1317 1317 1316 1315 1314 1313 1312 1312 1311 1310 1308 1307 1306 1304 1301 1300 1300 1301 1302 1302 1301 1300 1299 1297 1297 1297 1297 1296 1296 1296 1296 1294 1293 1291 1289 1287 1287 1288 1290 1291 1292 1293 1293 1294 1294 1295 1296 1297 1299 1300 1301 1302 1303 1304 1306 1307 1308 1309 1311 1313 1315 1317 1319 1321 1324 1326 1329 1331 1332 1334 1336
1340 1337 1335 1333 1331 1329 1327 1326 1324 1322 1321 1320 1319 1318 1317 1316 1315 1314 1313 1312 1312 1311 1310 1309 1308 1307 1306 1304 1302 1300 1298 1298 1299 1301 1301 1300 1299 1298 1297 1296 1296 1296 1296 1295 1295 1294 1293 1291 1291 1289 1287 1286 1286 1287 1288 1289 1290 1291 1291 1292 1293 1294 1295 1296 1297 1298 1299 1301 1302 1304 1305 1306 1308 1309 1311 1313 1315 1317 1320 1322 1325 1327 1329 1330 1332 1334
1338 1336 1334 1332 1330 1328 1326 1324 1323 1321 1320 1319 1318 1316 1316 1315 1314 1313 1312 1311 1310 1309 1308 1307 1306 1305 1304 1303 1301 1299 1297 1297 1298 1299 1299 1299 1298 1297 1296 1295 1294 1294 1295 1294 1293 1293 1292 1291 1290 1289 1288 1286 1284 1284 1285 1287 1288 1288 1289 1290 1291 1292 1293 1294 1295 1296 1297 1298 1300 1301 1303 1305 1306 1307 1309 1311 1313 1316 1318 1320 1322 1325 1326 1329 1330 1332
1337 1336 1333 1331 1330 1327 1326 1323 1322 1320 1319 1317 1316 1315 1314 1313 1312 1311 1310 1309 1308 1307 1306 1305 1304 1303 1302 1301 1300 1298 1296 1296 1296 1296 1297 1297 1296 1296 1295 1293 1293 1293 1293 1293 1292 1292 1291 1290 1289 1287 1286 1285 1284 1282 1283 1284 1286 1286 1286 1287 1288 1289 1290 1291 1292 1293 1294 1296 1297 1298 1300 1302 1303 1305 1307 1309 1311 1313 1315 1317 1320 1322 1324 1326 1328 1330
1337 1335 1333 1331 1329 1327 1325 1323 1321 1319 1318 1316 1315 1314 1313 1311 1311 1309 1308 1307 1306 1305 1304 1303 1302 1301 1301 1299 1298 1296 1295 1295 1294 1294 1295 1295 1295 1294 1293 1291 1291 1291 1291 1291 1291 1291 1290 1289 1288 1286 1285 1283 1282 1282 1282 1282 1282 1283 1283 1284 1285 1286 1287 1288 1289 1290 1291 1292 1294 1295 1297 1299 1301 1302 1305 1307 1309 1311 1312 1314 1316 1319 1321 1324 1326 1328
1336 1334 1332 1330 1328 1326 1324 1322 1320 1318 1316 1315 1314 1312 1311 1310 1309 1308 1307 1306 1305 1304 1303 1301 1301 1299 1298 1297 1296 1295 1294 1293 1293 1293 1292 1292 1292 1292 1291 1290 1289 1289 1290 1290 1290 1289 1289 1288 1287 1285 1284 1282 1281 1281 1281 1281 1280 1280 1281 1282 1283 1284 1285 1286 1286 1287 1288 1289 1291 1293 1295 1296 1298 1300 1301 1303 1305 1307 1309 1311 1313 1315 1318 1320 1322 1325
1336 1333 1331 1330 1328 1326 1324 1322 1320 1318 1316 1314 1313 1311 1310 1309 1308 1306 1305 1304 1303 1302 1301 1300 1299 1297 1296 1295 1294 1294 1293 1292 1291 1291 1291 1291 1290 1290 1289 1289 1288 1287 1288 1288 1288 1287 1287 1286 1285 1284 1283 1282 1280 1279 1278 1278 1279 1279 1280 1280 1280 1281 1282 1283 1284 1284 1285 1286 1288 1290 1291 1293 1295 1296 1298 1300 1301 1303 1305 1307 1309 1311 1314 1316 1318 1321
1335 1333 1331 1329 1328 1326 1324 1322 1319 1317 1315 1313 1311 1310 1309 1308 1306 1305 1304 1303 1302 1301 1300 1298 1297 1296 1295 1294 1293 1292 1291 1291 1290 1290 1289 1289 1288 1288 1288 1287 1286 1286 1286 1286 1286 1285 1285 1284 1283 1282 1281 1281 1279 1278 1277 1276 1277 1278 1278 1277 1276 1276 1277 1279 1281 1282 1283 1284 1285 1287 1288 1290 1291 1293 1295 1296 1298 1300 1301 1303 1306 1308 1310 1312 1314 1316
1335 1333 1331 1329 1327 1325 1323 1321 1319 1317 1315 1313 1311 1309 1308 1307 1305 1304 1302 1301 1300 1299 1298 1297 1296 1294 1293 1292 1291 1291 1290 1289 1289 1288 1287 1287 1286 1286 1286 1285 1285 1285 1285 1284 1283 1283 1282 1282 1281 1280 1279 1279 1278 1277 1275 1274 1275 1276 1276 1275 1274 1274 1275 1276 1278 1280 1280 1281 1282 1284 1285 1287 1289 1290 1291 1293 1295 1297 1299 1301 1303 1305 1307 1309 1311 1313
1335 1333 1331 1329 1327 1325 1323 1321 1318 1316 1314 1312 1310 1308 1307 1306 1305 1303 1302 1300 1299 1298 1297 1296 1294 1293 1291 1290 1289 1289 1288 1288 1287 1287 1286 1286 1285 1285 1284 1284 1284 1283 1283 1282 1281 1280 1280 1280 1279 1278 1277 1277 1277 1276 1274 1272 1272 1272 1273 1273 1273 1274 1274 1274 1275 1276 1277 1278 1279 1281 1282 1284 1286 1287 1289 1291 1292 1294 1296 1298 1299 1301 1303 1305 1307 1310
1334 1332 1331 1329 1326 1324 1322 1320 1318 1316 1314 1311 1309 1308 1306 1305 1304 1302 1301 1300 1298 1297 1296 1295 1293 1292 1290 1289 1288 1287 1287 1286 1286 1285 1285 1284 1284 1283 1282 1282 1282 1281 1281 1281 1280 1278 1277 1277 1276 1276 1276 1276 1276 1274 1273 1271 1270 1270 1270 1271 1271 1271 1271 1270 1271 1272 1273 1275 1276 1277 1279 1281 1282 1285 1286 1288 1290 1291 1293 1294 1296 1297 1299 1302 1305 1307
1334 1332 1330 1328 1326 1324 1322 1320 1317 1315 1313 1311 1309 1307 1306 1304 1303 1302 1300 1299 1297 1296 1295 1294 1292 1291 1289 1288 1287 1286 1285 1285 1284 1284 1283 1283 1282 1282 1281 1281 1280 1280 1279 1278 1277 1276 1276 1275 1273 1273 1274 1274 1273 1272 1271 1269 1268 1267 1267 1268 1269 1268 1267 1267 1268 1270 1270 1271 1273 1274 1276 1278 1280 1283 1284 1286 1287 1288 1289 1291 1292 1294 1296 1299 1302 1305
1334 1332 1330 1328 1326 1324 1322 1320 1317 1315 1313 1311 1309 1307 1305 1304 1302 1301 1300 1298 1296 1295 1294 1293 1292 1291 1289 1287 1286 1285 1284 1283 1282 1282 1281 1281 1281 1280 1280 1279 1278 1277 1277 1276 1275 1274 1273 1272 1271 1271 1271 1271 1271 1269 1268 1267 1266 1265 1265 1265 1266 1266 1266 1266 1266 1267 1268 1268 1270 1271 1273 1276 1278 1280 1281 1282 1283 1285 1286 1288 1289 1291 1293 1295 1298 1301
1334 1331 1329 1327 1326 1323 1321 1319 1317 1315 1313 1311 1309 1307 1305 1303 1301 1300 1299 1297 1296 1295 1293 1292 1291 1290 1288 1287 1285 1284 1283 1282 1281 1280 1280 1279 1279 1278 1278 1277 1276 1276 1275 1273 1272 1271 1271 1270 1269 1269 1269 1269 1267 1265 1264 1264 1263 1263 1262 1263 1263 1263 1263 1262 1263 1263 1263 1264 1266 1268 1270 1273 1275 1276 1277 1279 1281 1283 1284 1286 1286 1288 1290 1292 1295 1297
1334 1331 1329 1327 1325 1323 1321 1319 1317 1315 1313 1311 1309 1306 1305 1303 1301 1299 1298 1296 1295 1294 1292 1291 1290 1289 1287 1286 1285 1284 1282 1281 1280 1279 1279 1278 1277 1277 1276 1275 1274 1273 1272 1271 1270 1269 1268 1267 1267 1267 1266 1266 1264 1262 1261 1261 1261 1261 1261 1261 1261 1260 1259 1258 1258 1259 1260 1261 1262 1264 1267 1269 1271 1272 1274 1277 1279 1281 1282 1283 1284 1285 1287 1289 1292 1295
1334 1331 1330 1327 1325 1323 1321 1319 1317 1315 1313 1311 1308 1306 1304 1303 1301 1299 1297 1296 1294 1293 1292 1291 1289 1288 1286 1285 1284 1283 1282 1281 1280 1278 1277 1276 1276 1275 1274 1273 1272 1271 1270 1269 1268 1267 1266 1265 1264 1264 1263 1262 1261 1259 1258 1258 1259 1259 1259 1259 1258 1257 1256 1255 1256 1256 1257 1258 1259 1261 1263 1265 1266 1268 1272 1275 1276 1277 1278 1279 1281 1282 1284 1286 1289 1291
1333 1332 1330 1328 1326 1323 1321 1319 1317 1315 1313 1311 1308 1306 1304 1302 1300 1299 1297 1295 1294 1293 1291 1290 1289 1287 1286 1284 1283 1282 1281 1280 1278 1277 1276 1276 1274 1273 1272 1271 1270 1269 1268 1267 1266 1265 1264 1263 1261 1261 1260 1259 1258 1258 1257 1256 1257 1257 1257 1256 1255 1254 1253 1253 1253 1254 1255 1255 1256 1258 1259 1261 1263 1266 1270 1272 1272 1273 1275 1276 1278 1279 1280 1283 1286 1289
1333 1331 1330 1328 1326 1323 1321 1319 1317 1315 1313 1311 1309 1306 1304 1302 1300 1298 1296 1295 1293 1292 1291 1289 1288 1287 1285 1283 1282 1281 1280 1279 1277 1276 1275 1274 1273 1272 1271 1270 1269 1267 1266 1265 1264 1263 1261 1260 1259 1258 1257 1256 1256 1256 1256 1255 1255 1255 1254 1253 1252 1252 1251 1251 1250 1251 1251 1251 1252 1254 1256 1258 1260 1263 1266 1267 1269 1271 1272 1274 1275 1276 1277 1280 1283 1286